TimeCDT,TemperatureF,Dew PointF,Humidity,Sea Level PressureIn,VisibilityMPH,Wind Direction,Wind SpeedMPH,Gust SpeedMPH,PrecipitationIn,Events,Conditions,WindDirDegrees,DateUTC
12:15 AM,68.2,68.2,100,30.13,10.0,Calm,Calm,-,0.01,,Scattered Clouds,0,2012-10-05 05:15:00
12:35 AM,68.5,68.5,100,30.14,10.0,Calm,Calm,-,0.01,,Clear,0,2012-10-05 05:35:00
12:55 AM,68.0,68.0,100,30.13,10.0,Calm,Calm,-,0.01,,Clear,0,2012-10-05 05:55:00
1:15 AM,68.5,68.5,100,30.13,5.0,Calm,Calm,-,N/A,,Clear,0,2012-10-05 06:15:00
1:35 AM,68.2,68.2,100,30.14,7.0,Calm,Calm,-,N/A,,Clear,0,2012-10-05 06:35:00
1:55 AM,67.6,67.6,100,30.13,4.0,Calm,Calm,-,N/A,,Clear,0,2012-10-05 06:55:00
2:15 AM,68.0,68.0,100,30.13,5.0,Calm,Calm,-,N/A,,Clear,0,2012-10-05 07:15:00
2:35 AM,67.8,67.8,100,30.13,7.0,Calm,Calm,-,N/A,,Clear,0,2012-10-05 07:35:00
2:55 AM,67.1,67.1,100,30.13,5.0,Calm,Calm,-,N/A,,Clear,0,2012-10-05 07:55:00
3:15 AM,67.1,67.1,100,30.12,0.8,Calm,Calm,-,N/A,,Mist,0,2012-10-05 08:15:00
3:35 AM,66.6,66.6,100,30.12,0.8,Calm,Calm,-,N/A,,Mostly Cloudy,0,2012-10-05 08:35:00
3:55 AM,66.2,66.2,100,30.11,0.2,Calm,Calm,-,N/A,Fog,Fog,0,2012-10-05 08:55:00
4:15 AM,65.3,65.3,100,30.11,0.2,Calm,Calm,-,N/A,Fog,Fog,0,2012-10-05 09:15:00
4:35 AM,65.5,65.5,100,30.11,0.5,Calm,Calm,-,N/A,Fog,Fog,0,2012-10-05 09:35:00
4:55 AM,64.9,64.9,100,30.12,0.2,Calm,Calm,-,N/A,Fog,Fog,0,2012-10-05 09:55:00
5:15 AM,65.3,65.3,100,30.12,0.5,Calm,Calm,-,N/A,Fog,Fog,0,2012-10-05 10:15:00
5:35 AM,64.8,64.8,100,30.12,0.2,Calm,Calm,-,N/A,Fog,Fog,0,2012-10-05 10:35:00
5:55 AM,64.6,64.6,100,30.13,0.2,Calm,Calm,-,N/A,Fog,Fog,0,2012-10-05 10:55:00
6:15 AM,64.6,64.6,100,30.13,0.2,Calm,Calm,-,N/A,Fog,Fog,0,2012-10-05 11:15:00
6:35 AM,64.9,64.9,100,30.13,0.2,Calm,Calm,-,N/A,Fog,Fog,0,2012-10-05 11:35:00
6:55 AM,65.7,65.7,100,30.13,0.2,Calm,Calm,-,N/A,Fog,Fog,0,2012-10-05 11:55:00
7:35 AM,67.1,67.1,100,30.13,0.2,Calm,Calm,-,N/A,Fog,Fog,0,2012-10-05 12:35:00
7:55 AM,68.4,68.4,100,30.14,0.2,Calm,Calm,-,N/A,Fog,Fog,0,2012-10-05 12:55:00
8:15 AM,69.6,69.6,100,30.14,0.2,Calm,Calm,-,N/A,Fog,Fog,0,2012-10-05 13:15:00
8:35 AM,70.0,70.0,100,30.15,0.2,Calm,Calm,-,N/A,Fog,Fog,0,2012-10-05 13:35:00
8:55 AM,70.7,70.7,100,30.15,0.2,Calm,Calm,-,N/A,Fog,Fog,0,2012-10-05 13:55:00
9:15 AM,71.6,71.6,100,30.15,0.2,Calm,Calm,-,N/A,Fog,Fog,0,2012-10-05 14:15:00
9:35 AM,72.5,72.5,100,30.15,0.2,Calm,Calm,-,N/A,Fog,Fog,0,2012-10-05 14:35:00
9:55 AM,73.4,73.4,100,30.15,0.2,Calm,Calm,-,N/A,Fog,Fog,0,2012-10-05 14:55:00
10:15 AM,74.1,74.1,100,30.15,0.8,Calm,Calm,-,N/A,,Overcast,0,2012-10-05 15:15:00
10:35 AM,75.0,75.0,100,30.15,10.0,NE,3.5,-,N/A,,Scattered Clouds,50,2012-10-05 15:35:00
10:55 AM,75.4,75.4,100,30.14,10.0,ENE,4.6,-,N/A,,Scattered Clouds,70,2012-10-05 15:55:00
11:15 AM,76.5,76.3,99,30.14,10.0,East,3.5,-,N/A,,Clear,80,2012-10-05 16:15:00
11:35 AM,81.3,71.6,72,30.14,10.0,ENE,3.5,-,N/A,,Clear,60,2012-10-05 16:35:00
11:55 AM,82.8,69.8,65,30.13,10.0,SSE,5.8,-,N/A,,Clear,160,2012-10-05 16:55:00
12:15 PM,83.8,69.8,63,30.12,10.0,SSE,4.6,-,N/A,,Clear,160,2012-10-05 17:15:00
12:35 PM,85.6,67.8,55,30.11,10.0,SSE,8.1,-,N/A,,Scattered Clouds,160,2012-10-05 17:35:00
12:55 PM,84.9,67.8,56,30.10,10.0,SSE,8.1,-,N/A,,Scattered Clouds,150,2012-10-05 17:55:00
1:35 PM,86.2,66.6,52,30.08,10.0,South,6.9,-,N/A,,Scattered Clouds,170,2012-10-05 18:35:00
1:55 PM,86.7,65.7,49,30.07,10.0,SSE,6.9,-,N/A,,Clear,160,2012-10-05 18:55:00
2:15 PM,86.9,65.7,49,30.06,10.0,South,8.1,-,N/A,,Clear,190,2012-10-05 19:15:00
2:35 PM,86.9,64.4,47,30.05,10.0,South,6.9,-,N/A,,Clear,180,2012-10-05 19:35:00
2:55 PM,87.1,64.0,46,30.05,10.0,South,5.8,-,N/A,,Clear,170,2012-10-05 19:55:00
3:15 PM,87.1,61.5,42,30.04,10.0,South,3.5,-,N/A,,Clear,180,2012-10-05 20:15:00
3:35 PM,87.4,61.2,41,30.03,10.0,Calm,Calm,-,N/A,,Clear,0,2012-10-05 20:35:00
3:55 PM,87.6,60.6,40,30.03,10.0,Calm,Calm,-,N/A,,Clear,0,2012-10-05 20:55:00
4:15 PM,87.1,61.2,42,30.02,10.0,WSW,3.5,-,N/A,,Clear,250,2012-10-05 21:15:00
4:35 PM,87.1,60.8,41,30.02,10.0,Calm,Calm,-,N/A,,Clear,0,2012-10-05 21:35:00
4:55 PM,86.9,62.2,43,30.01,10.0,South,3.5,-,N/A,,Clear,190,2012-10-05 21:55:00
5:15 PM,86.5,62.4,44,30.01,10.0,SSW,5.8,-,N/A,,Clear,200,2012-10-05 22:15:00
5:35 PM,86.0,63.3,47,30.01,10.0,SW,4.6,-,N/A,,Clear,220,2012-10-05 22:35:00
5:55 PM,84.6,64.6,51,30.01,10.0,SSW,4.6,-,N/A,,Clear,200,2012-10-05 22:55:00
6:15 PM,83.5,65.3,54,30.01,10.0,SSW,3.5,-,N/A,,Clear,210,2012-10-05 23:15:00
6:35 PM,81.0,65.3,59,30.01,10.0,South,3.5,-,N/A,,Clear,180,2012-10-05 23:35:00
6:55 PM,78.4,67.1,68,30.01,10.0,South,3.5,-,N/A,,Clear,170,2012-10-05 23:55:00
7:15 PM,76.1,67.1,74,30.02,10.0,South,4.6,-,N/A,,Clear,180,2012-10-06 00:15:00
7:35 PM,74.8,66.6,75,30.02,10.0,South,3.5,-,N/A,,Clear,190,2012-10-06 00:35:00
7:55 PM,75.7,67.1,74,30.02,10.0,SSW,4.6,-,N/A,,Clear,200,2012-10-06 00:55:00
8:15 PM,75.2,67.3,76,30.02,10.0,South,3.5,-,N/A,,Clear,180,2012-10-06 01:15:00
8:35 PM,72.7,68.0,85,30.02,10.0,Calm,Calm,-,N/A,,Clear,0,2012-10-06 01:35:00
8:55 PM,72.5,68.4,87,30.02,10.0,Calm,Calm,-,N/A,,Clear,0,2012-10-06 01:55:00
9:15 PM,71.4,68.2,89,30.02,10.0,SSW,3.5,-,N/A,,Clear,200,2012-10-06 02:15:00
9:35 PM,71.1,68.2,91,30.03,10.0,Calm,Calm,-,N/A,,Clear,0,2012-10-06 02:35:00
9:55 PM,71.6,68.9,91,30.03,10.0,Calm,Calm,-,N/A,,Clear,0,2012-10-06 02:55:00
10:35 PM,70.0,68.5,95,30.02,10.0,Calm,Calm,-,N/A,,Clear,0,2012-10-06 03:35:00
10:55 PM,69.3,69.3,100,30.02,10.0,Calm,Calm,-,N/A,,Clear,0,2012-10-06 03:55:00
11:15 PM,69.1,69.1,100,30.02,10.0,Calm,Calm,-,N/A,,Clear,0,2012-10-06 04:15:00
11:35 PM,67.1,67.1,100,30.02,10.0,Calm,Calm,-,N/A,,Clear,0,2012-10-06 04:35:00
11:55 PM,66.6,66.6,100,30.02,10.0,Calm,Calm,-,N/A,,Clear,0,2012-10-06 04:55:00